Regional Weather Roundup
Issued by NWS

Home | Current Version | Previous Version | Text Only | Print | Product List | Glossary Off
Versions: 1 2 3 4 5 6 7 8 9 10 11 12 13 14 15 16 17 18 19 20 21 22 23 24 25 26 27 28 29 30 31 32 33 34 35 36 37 38 39 40 41 42 43 44 45 46 47 48 49 50

000
ASUS43 KLSX 202159
RWRMO

WEATHER SUMMARY FOR MISSOURI
NATIONAL WEATHER SERVICE SPRINGFIELD MO
500 PM CDT SUN APR 20 2014

NOTE: "FAIR" INDICATES FEW OR NO CLOUDS BELOW 12,000 FEET WITH NO
       SIGNIFICANT WEATHER AND/OR OBSTRUCTIONS TO VISIBILITY.
       CURRENT SKY AND/OR WEATHER CONDITIONS ARE NOT AVAILABLE FOR
       CHILLICOTHE AND FARMINGTON.

MOZ001>031-035>038-043-044-053-054-202300-
...NORTHERN AND WESTERN MISSOURI...

CITY           SKY/WX    TMP DP  RH WIND       PRES   REMARKS
KANSAS CTY INT CLOUDY    75  54  47 S15       30.01F
KANSAS C DTWN  CLOUDY    77  52  41 SW9       30.00F
LEE`S SUMMIT   CLOUDY    75  51  43 S12       30.03F
ST JOSEPH      CLOUDY    76  52  43 S20       29.99F
CHILLICOTHE      N/A     77  47  34 S12G20    30.03S
KIRKSVILLE     PTSUNNY   79  48  33 S14G21    30.04F

$$
MOZ066>068-077>081-088>096-101>105-202300-
...SOUTHWEST MISSOURI...

CITY           SKY/WX    TMP DP  RH WIND       PRES   REMARKS
SPRINGFIELD    PTSUNNY   75  50  41 W7        30.07F
JOPLIN         CLOUDY    74  51  44 SW6       30.07F

$$
MOZ032>034-039>042-045>050-055>058-069>072-202300-
...CENTRAL MISSOURI...

CITY           SKY/WX    TMP DP  RH WIND       PRES   REMARKS
COLUMBIA       MOSUNNY   80  49  33 SW14      30.05F
JEFFERSON CITY MOSUNNY   80  46  30 S13       30.04F
ROLLA          MOSUNNY   77  50  38 S12       30.06F
SEDALIA        PTSUNNY   76  51  41 SW13      30.06F
OSAGE BEACH    CLOUDY    79  46  31 S8        30.06F

$$
MOZ051-052-059>065-202300-
...EAST CENTRAL MISSOURI...

CITY           SKY/WX    TMP DP  RH WIND       PRES   REMARKS
ST LOUIS INTL  MOSUNNY   82  39  21 SE10      30.06F
SPIRIT OF STL  SUNNY     80  37  21 S7G16     30.04F
ST CHARLES     SUNNY     81  40  23 S6        30.04F

$$
MOZ072>076-082>087-097>100-106>115-202300-
...SOUTH CENTRAL AND SOUTHEAST MISSOURI...

CITY           SKY/WX    TMP DP  RH WIND       PRES   REMARKS
CAPE GIRARDEAU PTSUNNY   78  44  29 S8        30.10F
FARMINGTON     PTSUNNY   79  41  25 SW13      30.11S
POPLAR BLUFF   SUNNY     78  45  30 S5        30.08F
WEST PLAINS    CLOUDY    76  46  34 S6        30.10F

$$



USA.gov is the U.S. government's official web portal to all federal, state and local government web resources and services.